Regional Weather Roundup
Issued by NWS Little Rock, AR

Home | Current Version | Previous Version | Graphics & Text | Print | Product List | Glossary On
Versions: 1 2 3 4 5 6 7 8 9 10 11 12 13 14 15 16 17 18 19 20 21 22 23 24 25 26 27 28 29 30 31 32
000
ASUS44 KLZK 201105
RWRLZK

WEATHER ROUNDUP FOR ARKANSAS
NATIONAL WEATHER SERVICE LITTLE ROCK AR
600 AM CDT THU JUL 20 2017

NOTE: "FAIR" INDICATES FEW OR NO CLOUDS BELOW 12,000 FEET WITH NO
SIGNIFICANT WEATHER AND/OR OBSTRUCTIONS TO VISIBILITY.

ARZ001-003-010-029-201200-
NORTHWEST ARKANSAS

CITY           SKY/WX    TMP DP  RH WIND       PRES   REMARKS
FAYETTEVILLE   CLEAR     69  69 100 CALM      30.15R
FORT SMITH     CLEAR     78  75  90 NE3       30.10R
HARRISON       CLEAR     71  70  96 SW3       30.14R
BENTONVILLE    CLEAR     75  70  83 CALM      30.15R
ROGERS         CLEAR     73  70  90 CALM      30.16R
SILOAM SPGS    CLEAR     73  68  83 S5        30.13R
HIGHFILL       CLEAR     72  70  93 CALM      30.14R
SPRINGDALE     CLEAR     75  72  88 SE3       30.16
$$

ARZ004-005-016-201200-
NORTH CENTRAL ARKANSAS

CITY           SKY/WX    TMP DP  RH WIND       PRES   REMARKS
BATESVILLE     CLEAR     75  72  88 CALM      30.10R
FLIPPIN        CLEAR     72  66  83 CALM      30.09S
MTN HOME       CLEAR     72  71  97 CALM      30.11R
$$

ARZ040-041-201200-
WEST CENTRAL ARKANSAS

CITY           SKY/WX    TMP DP  RH WIND       PRES   REMARKS
MENA           PTCLDY    73  73 100 CALM      30.15R
MOUNT IDA      CLEAR     74  72  93 CALM      30.10R FOG
$$

ARZ009-017-025-026-028-201200-
NORTHEAST ARKANSAS

CITY           SKY/WX    TMP DP  RH WIND       PRES   REMARKS
CORNING        FAIR      75  75 100 SW3       30.09R
JONESBORO      CLEAR     76  75  97 CALM      30.09R
WALNUT RIDGE   CLEAR     75  72  88 S5        30.09R
BLYTHEVILLE    CLEAR     76  74  93 S5        30.10R
$$

ARZ022-023-033-042-044-201200-
CENTRAL ARKANSAS

CITY           SKY/WX    TMP DP  RH WIND       PRES   REMARKS
LITTLE ROCK    PTCLDY    78  77  96 CALM      30.10R
N LITTLE ROCK    N/A     79  75  86 CALM      30.09R
JACKSONVILLE   CLEAR     75  75 100 CALM      30.10R
CONWAY           N/A     75  75 100 NE3       30.08S
SEARCY         CLEAR     74  74 100 CALM      30.11R FOG
HOT SPRINGS    CLEAR     76  75  97 CALM      30.11R
RUSSELLVILLE   CLEAR     75  74  96 CALM      30.09R
CLINTON        FAIR      72  72 100 CALM      30.12R FOG
$$

ARZ036-201200-
EAST ARKANSAS

CITY           SKY/WX    TMP DP  RH WIND       PRES   REMARKS
WEST MEMPHIS   CLEAR     74  74 100 CALM      30.09R FOG
$$

ARZ050-053-066-070-073-201200-
SOUTHWEST ARKANSAS

CITY           SKY/WX    TMP DP  RH WIND       PRES   REMARKS
ARKADELPHIA    FAIR      75  75 100 CALM      30.11R FOG
CAMDEN         CLEAR     75  72  88 CALM      30.10R FOG
TEXARKANA      PTCLDY    77  75  93 S3        30.11R
EL DORADO      CLEAR     75  74  96 CALM      30.11R
DE QUEEN       CLEAR     75  75 100 CALM      30.09R FOG
$$

ARZ056-057-069-201200-
SOUTHEAST ARKANSAS

CITY           SKY/WX    TMP DP  RH WIND       PRES   REMARKS
PINE BLUFF     CLEAR     76  74  93 CALM      30.11R
STUTTGART      CLEAR     79  64  61 S6        30.11R
MONTICELLO     CLEAR     78  74  87 CALM      30.11R

$$






USA.gov is the U.S. government's official web portal to all federal, state and local government web resources and services.